Regional Weather Roundup
Issued by NWS

Home | Current Version | Previous Version | Graphics & Text | Print | Product List | Glossary Off
Versions: 1 2 3 4 5 6 7 8 9 10 11 12 13 14 15 16 17 18 19 20 21 22 23 24 25 26 27 28 29 30 31 32 33 34 35 36 37 38 39 40 41 42 43 44 45 46 47 48 49 50

000
ASUS45 KBOI 011210
RWRID
WEATHER ROUNDUP FOR IDAHO
NATIONAL WEATHER SERVICE BOISE ID
600 AM MDT WED OCT 01 2014

NOTE: "FAIR" INDICATES FEW OR NO CLOUDS BELOW 12000 FEET
WITH NO SIGNIFICANT WEATHER AND/OR OBSTRUCTIONS TO VISIBILITY

IDZ012-014-011300-
SOUTHWEST IDAHO


CITY           SKY/WX    TMP DP  RH WIND       PRES   REMARKS
BOISE          CLEAR     45  38  76 W5        30.10R
CALDWELL       CLEAR     43  30  61 W7        30.13R
MOUNTAIN HOME  CLEAR     45  40  81 NW13      30.09R
$$

IDZ016-017-011300-
SOUTHCENTRAL IDAHO


CITY           SKY/WX    TMP DP  RH WIND       PRES   REMARKS
BURLEY         CLOUDY    42  37  82 CALM      30.03R
JEROME         PTCLDY    37  35  92 SW3       30.04R
TWIN FALLS     CLEAR     43  34  70 W14       30.04R
$$

IDZ019>023-011300-
SOUTHEAST IDAHO


CITY           SKY/WX    TMP DP  RH WIND       PRES   REMARKS
IDAHO FALLS    CLOUDY    41  38  89 S6        30.01R
POCATELLO      CLOUDY    43  37  79 SW8       30.03R
REXBURG        MOCLDY    40  37  89 S8        30.00R WCI  34
$$

IDZ006-010-011-018-031-032-011300-
CENTRAL IDAHO MOUNTAINS


CITY           SKY/WX    TMP DP  RH WIND       PRES   REMARKS
MCCALL         MOCLDY    36  33  89 CALM      30.08R
HAILEY         PTCLDY    41  30  65 CALM      30.04S
STANLEY          N/A     33  29  85 CALM      30.09R
SALMON         CLOUDY    43  37  81 S3        30.05R
CHALLIS        CLOUDY    40  34  79 CALM      30.05R
$$

IDZ002-004-006-007-026-011300-
NORTHERN IDAHO


CITY           SKY/WX    TMP DP  RH WIND       PRES   REMARKS
LEWISTON       CLEAR     47  41  80 W3        30.10R
LOWELL           N/A     48  46  93 CALM      30.13R
COEUR D`ALENE  CLEAR     43  39  87 S8        30.06R
MULLAN PASS    CLOUDY    33  32  96 CALM      30.03S FOG
$$



USA.gov is the U.S. government's official web portal to all federal, state and local government web resources and services.